Home > Weather > Windhoek > Past weeks

Flag for Namibia Past Weather in Windhoek, Namibia — Yesterday and Last 2 Weeks

Now
57 °F

Refreshingly cool.


Feels Like: 56 °F
Forecast: 52 / 81 °F
Wind: 6 mph from East

Location: Windhoek

Current Time: Aug 27, 2016 at 4:26:21 AM

Latest Report: Aug 27, 2016 at 4:00 AM


Visibility: N/A

Pressure: 30.36 "Hg (24.86 "Hg at 1680m altitude)

Humidity: 23%

Dew Point: 19 °F

Location of WindhoekLocation

Past Weather in Windhoek — Graph

°F

Windhoek Temperature Yesterday

Maximum temperature yesterday: 84 °F (at 2:00 PM)
Minimum temperature yesterday: 54 °F (at 4:00 AM)
Average temperature yesterday: 69 °F

High & Low Weather Summary for the Past Weeks

 TemperatureHumidityPressure
High86 °F (Aug 24, 1:00 PM)42% (Aug 18, 6:00 AM)30.42 "Hg (Aug 18, 6:00 AM)
Low48 °F (Aug 14, 1:00 AM)6% (Aug 24, 3:00 PM)30.09 "Hg (Aug 13, 2:00 PM)
Average67 °F20%30.26 "Hg
* Reported Aug 12 3:00 AM — Aug 27 3:00 AM, Windhoek, Weather by CustomWeather, © 2016

Note: Actual official high and low records may vary slightly from our data, if they occured in-between our weather recording intervals... More about our weather records

Advertising

Windhoek Weather History for the Previous 24 Hours

Scroll right to see more
 ConditionsComfort  
Time TempWeatherWind HumidityBarometerVisibility
3:00 AM
Sat, Aug 27
57 °FRefreshingly cool.6 mph21%30.33 "HgN/A
2:00 AM59 °FRefreshingly cool.7 mph20%30.33 "HgN/A
1:00 AM61 °FRefreshingly cool.6 mph17%30.36 "HgN/A
12:00 AM63 °FMild.5 mph16%30.36 "HgN/A
11:00 PM
Fri, Aug 26
63 °FMild.6 mph15%30.36 "HgN/A
10:00 PM64 °FMild.7 mph14%30.36 "HgN/A
9:00 PM66 °FMild.8 mph12%30.36 "HgN/A
8:00 PM68 °FMild.7 mph11%30.33 "HgN/A
7:00 PM70 °FClear.5 mph11%30.33 "Hg10 mi
6:00 PM73 °FClear.6 mph10%30.30 "Hg10 mi
5:00 PM79 °FClear.6 mph8%30.30 "Hg10 mi
4:00 PM82 °FSunny.6 mph6%30.27 "Hg10 mi
3:00 PM82 °FSunny.7 mph7%30.27 "Hg10 mi
2:00 PM84 °FSunny.7 mph6%30.27 "Hg10 mi
12:00 PM82 °FSunny.6 mph7%30.30 "Hg10 mi
11:00 AM77 °FSunny.5 mph13%30.33 "Hg10 mi
10:00 AM75 °FSunny.5 mph15%30.36 "Hg10 mi
9:00 AM72 °FSunny.5 mph17%30.39 "Hg10 mi
7:00 AM57 °FSunny.8 mph31%30.36 "Hg10 mi
5:00 AM54 °FCool.7 mph33%30.33 "HgN/A
4:00 AM54 °FCool.7 mph30%30.33 "HgN/A
Weather by CustomWeather, © 2016

See weather overviewHow to use our weather pages